Regional Weather Roundup
Issued by NWS

Home | Current Version | Previous Version | Graphics & Text | Print | Product List | Glossary On
Versions: 1 2 3 4 5 6 7 8 9 10 11 12 13 14 15 16 17 18 19 20 21 22 23 24 25 26 27 28 29 30 31 32 33 34 35 36 37 38 39 40 41 42 43 44 45 46 47 48 49 50
000
ASUS43 KMKX 271721
RWRWI

WISCONSIN REGIONAL WEATHER ROUNDUP
NATIONAL WEATHER SERVICE MILWAUKEE/SULLIVAN WI
1200 PM CDT THU JUL 27 2017

NOTE: "FAIR" INDICATES FEW OR NO CLOUDS BELOW 12,000 FEET WITH NO
SIGNIFICANT WEATHER AND/OR OBSTRUCTIONS TO VISIBILITY.

WIZ001-002-006>008-014>016-023>028-271800-
NORTHWEST WISCONSIN

CITY           SKY/WX    TMP DP  RH WIND       PRES   REMARKS
SUPERIOR ARPT  NOT AVBL
ASHLAND        SUNNY     77  63  61 N6        30.10S
HAYWARD        SUNNY     78  58  49 NE6       30.10S
SIREN          MOSUNNY   79  58  48 E3        30.10S HX  80
CUMBERLAND     PTSUNNY   77  54  44 CALM      30.10S
RICE LAKE      SUNNY     79  58  49 N5        30.10S HX  80
CHETEK         SUNNY     79  59  50 MISG      30.08F HX  80
LADYSMITH      MOSUNNY   79  58  48 NE5       30.10F HX  80
EAU CLAIRE     SUNNY     80  60  50 NE7       30.05F HX  81
MENOMONIE      SUNNY     79  58  47 N5        30.07F HX  80
NEW RICHMOND   SUNNY     80  61  52 N5        30.09S HX  81
OSCEOLA        SUNNY     80  59  49 NE6       30.11S HX  80
$$

WIZ003>005-009-010-017-018-271800-
NORTH CENTRAL WISCONSIN

CITY           SKY/WX    TMP DP  RH WIND       PRES   REMARKS
MANITOWISH WTR MOSUNNY   74  58  57 CALM      30.10F
ARBOR VITAE    MOSUNNY   77  58  51 CALM      30.09F
WOODRUFF       MOSUNNY   77  58  51 CALM      30.09F
RHINELANDER    MOSUNNY   77  58  51 VRB5      30.10S
EAGLE RIVER    MOSUNNY   76  55  47 E6        30.10R
LAND O LAKES   MOSUNNY   77  54  43 N3        30.11F
PHILLIPS       MOSUNNY   76  60  57 N5        30.09S
TOMAHAWK         N/A     76  57  52 N3        30.09S
MEDFORD        MOSUNNY   76  58  53 NE6       30.08S
MERRILL        MOSUNNY   79  59  50 CALM      30.08S HX  80
$$

WIZ029-030-035-036-043>047-271800-
CENTRAL WISCONSIN

CITY           SKY/WX    TMP DP  RH WIND       PRES   REMARKS
WAUSAU         MOSUNNY   78  60  53 VRB5      30.05R
MOSINEE        MOSUNNY   77  59  53 CALM      30.07S
MARSHFIELD     SUNNY     79  60  52 E6        30.06S HX  80
STEVENS POINT  SUNNY     77  59  54 NE6       30.06S
WAUPACA        SUNNY     82  59  46 N6        30.04S HX  82
WAUTOMA        MOSUNNY   79  60  52 CALM      30.04R HX  80
WISC RAPIDS    MOSUNNY   80  61  52 VRB5      30.06S HX  81
CAMP DOUGLAS   MOSUNNY   81  63  54 NE7       30.04S HX  82
$$

WIZ011>013-019>022-031-037>040-048>050-271800-
NORTHEAST WISCONSIN

CITY           SKY/WX    TMP DP  RH WIND       PRES   REMARKS
ANTIGO         MOSUNNY   76  60  56 NE6       30.09R
SHAWANO        SUNNY     81  59  47 NE6       30.05R HX  81
OCONTO         SUNNY     77  60  56 NE7       30.03S
STURGEON BAY     N/A     75  63  66 N13       30.04S
GREEN BAY      SUNNY     78  66  66 NE9       30.03S HX  80
MANITOWOC      SUNNY     76  60  57 NE9       30.03R
APPLETON       SUNNY     79  54  41 E14       30.02S
CLINTONVILLE   SUNNY    N/A N/A N/A NE7       30.05R
OSHKOSH        SUNNY     77  64  64 NE10      30.02S
$$

WIZ032>034-041-042-053>061-271800-
SOUTHWEST WISCONSIN

CITY           SKY/WX    TMP DP  RH WIND       PRES   REMARKS
LA CROSSE      SUNNY     83  64  52 NW8       30.04S HX  84
SPARTA         SUNNY     80  57  46 NE8       30.05S HX  80
VIROQUA        SUNNY     78  60  55 E10       30.06S
BOSCOBEL       SUNNY     82  61  48 NE8       30.02S HX  83
PRAIRIE DU CHI SUNNY     80  58  47 NE8       30.01F HX  80
PLATTEVILLE    SUNNY     80  64  58 NE9       30.02S HX  82
$$

WIZ056-057-062-063-064-067-068-271800-
SOUTH CENTRAL WISCONSIN

CITY           SKY/WX    TMP DP  RH WIND       PRES   REMARKS
REEDSBURG      SUNNY     78  61  55 NE7       30.04R
BARABOO/DELLS  SUNNY     79  58  48 NE6       30.04S HX  80
LONE ROCK      SUNNY     81  63  54 N8        30.02S HX  82
MINERAL POINT  SUNNY     79  64  61 NE8       30.03S HX  81
MADISON        MOSUNNY   80  63  55 NE8       30.00F HX  81
MIDDLETON      SUNNY     80  63  54 E10       30.02S HX  82
WATERTOWN      SUNNY     78  64  61 NE9       30.00F HX  80
MONROE         MOSUNNY   79  68  69 NE13G18   30.00S HX  81
JANESVILLE     MOSUNNY   81  63  54 NE14      29.98  HX  82
$$

WIZ051-052-058>065-066-070>072-271800-
SOUTHEAST WISCONSIN

CITY           SKY/WX    TMP DP  RH WIND       PRES   REMARKS
MILWAUKEE      MOSUNNY   76  64  66 N13G25    29.99S
WAUKESHA       SUNNY     75  57  53 NE16G22   30.02R
MILWAUKEE/TIMM SUNNY     75  55  50 NE13      30.01S
RACINE         MOSUNNY   74  67  78 N15       30.00S
KENOSHA        SUNNY     77  66  68 NE14G21   29.99R
FOND DU LAC    SUNNY     79  59  50 N10       30.02S HX  80
SHEBOYGAN      SUNNY     77  64  64 NE15      30.02R
WEST BEND      SUNNY     75  61  60 NE13      30.01S
JUNEAU         SUNNY     77  61  57 NE9       30.03S
$$

LSZ147-162-271800-
LAKE SUPERIOR

STATION/POSITION TIME  TEMP    WIND        PRES    WAVE
                       AIR SEA DIR/SP/G            HT/PER
                 (UTC) (F)     (DEG/KT/KT) (MB)    (FT/S)
W MID LAKE BUOY  1650   55 53   30/  6/  8 1019.2F   0
DEVILS ISLAND    1700   61      30/  8/  9 1019.5S
SAXON HARBOR     1640   69      20/  5/  5 1018.6S
$$

LMZ867-665-643>646-271800-
LAKE MICHIGAN

STATION/POSITION TIME  TEMP    WIND        PRES    WAVE
                       AIR SEA DIR/SP/G            HT/PER
                 (UTC) (F)     (DEG/KT/KT) (MB)    (FT/S)
CHAMBERS ISLAND  1640   69      10/ 10/ 11 1016.9S
S GREEN BAY BUOY 1700   70 71   40/ 12/ 16 1016.8
N MID LAKE BUOY  1650   66 66   20/ 10/ 10 1017.3R   1/ 4
NORTHPORT PIER   1640   72      80/  1/  5 1017.3R
KEWAUNEE LAKESHO 1654   71      20/  4/  8 1016.2R
SHEBOYGAN LAKESH 1700   69      10/ 16/ 18 1015.8S
PORT WASHINGTON  1630   74      50/ 12/ 15 1016.9S
ATWATER BUOY     1609   70 69   10/ 12/ 16 1015.9R
MILWAUKEE LAKESH 1700   71      20/ 16/ 19   N/A
S MID LAKE BUOY  1650   71 71   10/ 14/ 14 1014.3R   1/ 3
KENOSHA   LAKESH 1700   69      10/ 17/ 19 1014.9
$$

TC  - TEMPERATURE IN CELSIUS
VSB - VISIBILITY IN STATUTE MILES
WCI - WIND CHILL INDEX
HX  - HEAT INDEX




USA.gov is the U.S. government's official web portal to all federal, state and local government web resources and services.